| time (UTC) | temp F | wind direction | speed knots | gust knots | rain 1hr in | rain 24hr in | rain mn in | humidity % | barometer mb |
| 20260831210518 | 76 | 10 | 4.3 | 11.3 | 0.00 | 0.00 | 0.00 | 74 | 1012.2 |
| 20260831210018 | 76 | 10 | 4.3 | 11.3 | 0.00 | 0.00 | 0.00 | 74 | 1012.3 |
| 20260831205518 | 76 | 337 | 8.7 | 12.2 | 0.00 | 0.00 | 0.00 | 72 | 1012.2 |
| 20260831205018 | 76 | 273 | 5.2 | 13.0 | 0.00 | 0.00 | 0.00 | 72 | 1012.3 |
| 20260831204519 | 76 | 266 | 7.8 | 13.0 | 0.00 | 0.00 | 0.00 | 72 | 1012.5 |
| 20260831204022 | 76 | 244 | 1.7 | 13.9 | 0.00 | 0.00 | 0.00 | 73 | 1012.4 |
| 20260831203518 | 76 | 332 | 5.2 | 13.9 | 0.00 | 0.00 | 0.00 | 75 | 1012.5 |
| 20260831203236 | 76 | 316 | 8.7 | 10.4 | 0.00 | 0.00 | 0.00 | 72 | 1012.5 |
| 20260831202517 | 76 | 323 | 2.6 | 10.4 | 0.00 | 0.00 | 0.00 | 74 | 1012.4 |
| 20260831201518 | 76 | 241 | 2.6 | 10.4 | 0.00 | 0.00 | 0.00 | 73 | 1012.5 |
| 20260831201019 | 76 | 282 | 3.5 | 10.4 | 0.00 | 0.00 | 0.00 | 74 | 1012.4 |
| 20260831200522 | 76 | 273 | 3.5 | 8.7 | 0.00 | 0.00 | 0.00 | 75 | 1012.4 |
| 20260831200016 | 76 | 285 | 4.3 | 12.2 | 0.00 | 0.00 | 0.00 | 73 | 1012.6 |
| 20260831195739 | 76 | 1 | 5.2 | 12.2 | 0.00 | 0.00 | 0.00 | 74 | 1012.6 |
| 20260831195018 | 76 | 318 | 3.5 | 8.7 | 0.00 | 0.00 | 0.00 | 73 | 1012.6 |
| 20260831194517 | 76 | 351 | 7.8 | 10.4 | 0.00 | 0.00 | 0.00 | 73 | 1012.6 |
| 20260831194021 | 76 | 266 | 3.5 | 11.3 | 0.00 | 0.00 | 0.00 | 74 | 1012.6 |
| 20260831193518 | 76 | 338 | 1.7 | 11.3 | 0.00 | 0.00 | 0.00 | 73 | 1012.6 |
| 20260831193023 | 76 | 344 | 3.5 | 7.8 | 0.00 | 0.00 | 0.00 | 73 | 1012.6 |
| 20260831192516 | 76 | 298 | 4.3 | 11.3 | 0.00 | 0.00 | 0.00 | 72 | 1012.5 |
| 20260831192016 | 76 | 350 | 7.0 | 11.3 | 0.00 | 0.00 | 0.00 | 73 | 1012.6 |
| 20260831191517 | 77 | 336 | 8.7 | 12.2 | 0.00 | 0.00 | 0.00 | 72 | 1012.6 |
| 20260831191016 | 77 | 320 | 4.3 | 13.0 | 0.00 | 0.00 | 0.00 | 73 | 1012.7 |
| 20260831190515 | 77 | 312 | 8.7 | 13.0 | 0.00 | 0.00 | 0.00 | 73 | 1012.8 |
| 20260831190015 | 77 | 310 | 8.7 | 8.7 | 0.00 | 0.00 | 0.00 | 73 | 1012.7 |
| 20260831185516 | 77 | 279 | 3.5 | 10.4 | 0.00 | 0.00 | 0.00 | 71 | 1012.6 |
| 20260831185017 | 77 | 191 | 1.7 | 10.4 | 0.00 | 0.00 | 0.00 | 72 | 1012.7 |
| 20260831184515 | 77 | 296 | 2.6 | 8.7 | 0.00 | 0.00 | 0.00 | 71 | 1012.7 |
| 20260831184014 | 77 | 355 | 3.5 | 8.7 | 0.00 | 0.00 | 0.00 | 71 | 1012.6 |
| 20260831183235 | 77 | 257 | 3.5 | 8.7 | 0.00 | 0.00 | 0.00 | 69 | 1012.7 |
| 20260831182519 | 77 | 307 | 6.1 | 7.0 | 0.00 | 0.00 | 0.00 | 70 | 1012.7 |
| 20260831182015 | 77 | 233 | 1.7 | 10.4 | 0.00 | 0.00 | 0.00 | 71 | 1012.7 |
| 20260831181015 | 76 | 307 | 2.6 | 6.1 | 0.00 | 0.00 | 0.00 | 71 | 1012.6 |
| 20260831180515 | 76 | 246 | 3.5 | 7.0 | 0.00 | 0.00 | 0.00 | 70 | 1012.6 |
| 20260831180019 | 76 | 324 | 4.3 | 7.0 | 0.00 | 0.00 | 0.00 | 71 | 1012.7 |
| 20260831175514 | 76 | 290 | 0.9 | 6.1 | 0.00 | 0.00 | 0.00 | 71 | 1012.7 |
| 20260831175016 | 76 | 349 | 1.7 | 7.8 | 0.00 | 0.00 | 0.00 | 71 | 1012.6 |
| 20260831174515 | 76 | 332 | 4.3 | 7.8 | 0.00 | 0.00 | 0.00 | 72 | 1012.4 |
| 20260831174013 | 75 | 249 | 4.3 | 7.8 | 0.00 | 0.00 | 0.00 | 73 | 1012.4 |
| 20260831173513 | 75 | 309 | 3.5 | 7.8 | 0.00 | 0.00 | 0.00 | 73 | 1012.4 |
| 20260831173014 | 75 | 348 | 5.2 | 8.7 | 0.00 | 0.00 | 0.00 | 74 | 1012.5 |
| 20260831172515 | 75 | 299 | 3.5 | 10.4 | 0.00 | 0.00 | 0.00 | 74 | 1012.4 |
| 20260831172014 | 75 | 331 | 3.5 | 10.4 | 0.00 | 0.00 | 0.00 | 74 | 1012.5 |
| 20260831171513 | 75 | 319 | 6.1 | 10.4 | 0.00 | 0.00 | 0.00 | 75 | 1012.4 |
| 20260831171014 | 76 | 326 | 4.3 | 10.4 | 0.00 | 0.00 | 0.00 | 75 | 1012.4 |
| 20260831170514 | 76 | 302 | 2.6 | 8.7 | 0.00 | 0.00 | 0.00 | 74 | 1012.3 |
| 20260831170012 | 76 | 335 | 5.2 | 8.7 | 0.00 | 0.00 | 0.00 | 75 | 1012.3 |
| 20260831165513 | 76 | 253 | 4.3 | 6.1 | 0.00 | 0.00 | 0.00 | 74 | 1012.3 |
| 20260831165013 | 76 | 274 | 1.7 | 7.0 | 0.00 | 0.00 | 0.00 | 72 | 1012.2 |
| 20260831164514 | 76 | 294 | 3.5 | 8.7 | 0.00 | 0.00 | 0.00 | 73 | 1012.2 |
| 20260831164012 | 76 | 316 | 3.5 | 8.7 | 0.00 | 0.00 | 0.00 | 73 | 1012.1 |
| 20260831163512 | 75 | 327 | 2.6 | 8.7 | 0.00 | 0.00 | 0.00 | 73 | 1012.2 |
| 20260831163013 | 75 | 350 | 4.3 | 8.7 | 0.00 | 0.00 | 0.00 | 74 | 1012.2 |
| 20260831162513 | 75 | 8 | 2.6 | 7.0 | 0.00 | 0.00 | 0.00 | 72 | 1012.1 |
| 20260831162011 | 75 | 327 | 5.2 | 7.0 | 0.00 | 0.00 | 0.00 | 73 | 1012.1 |
| 20260831161732 | 74 | 300 | 2.6 | 5.2 | 0.00 | 0.00 | 0.00 | 74 | 1012.1 |
| 20260831161012 | 74 | 314 | 0.9 | 5.2 | 0.00 | 0.00 | 0.00 | 74 | 1012.1 |
| 20260831160513 | 74 | 308 | 1.7 | 5.2 | 0.00 | 0.00 | 0.00 | 75 | 1012.2 |
| 20260831160011 | 74 | 266 | 1.7 | 5.2 | 0.00 | 0.00 | 0.00 | 76 | 1012.2 |
| 20260831155511 | 74 | 310 | 2.6 | 5.2 | 0.00 | 0.00 | 0.00 | 76 | 1012.2 |
| 20260831155011 | 74 | 309 | 0.9 | 5.2 | 0.00 | 0.00 | 0.00 | 78 | 1012.2 |
| 20260831154512 | 74 | 310 | 1.7 | 5.2 | 0.00 | 0.00 | 0.00 | 77 | 1012.2 |
| 20260831154011 | 74 | 311 | 1.7 | 4.3 | 0.00 | 0.00 | 0.00 | 77 | 1012.2 |
| 20260831153510 | 73 | 311 | 0.9 | 4.3 | 0.00 | 0.00 | 0.00 | 77 | 1012.1 |
| 20260831153011 | 73 | 312 | 1.7 | 2.6 | 0.00 | 0.00 | 0.00 | 77 | 1012.2 |
| 20260831152511 | 73 | 312 | 1.7 | 2.6 | 0.00 | 0.00 | 0.00 | 77 | 1012.1 |
| 20260831152011 | 73 | 312 | 0.0 | 2.6 | 0.00 | 0.00 | 0.00 | 79 | 1012.0 |
| 20260831151510 | 73 | 315 | 0.0 | 1.7 | 0.00 | 0.00 | 0.00 | 77 | 1011.9 |
| 20260831151010 | 72 | 265 | 0.9 | 2.6 | 0.00 | 0.00 | 0.00 | 79 | 1012.0 |
| 20260831150511 | 72 | 230 | 0.9 | 2.6 | 0.00 | 0.00 | 0.00 | 78 | 1011.9 |
| 20260831150230 | 71 | 267 | 0.0 | 1.7 | 0.00 | 0.00 | 0.00 | 78 | 1011.9 |
| 20260831145510 | 71 | 260 | 0.0 | 1.7 | 0.00 | 0.00 | 0.00 | 80 | 1011.9 |
| 20260831145009 | 71 | 252 | 0.0 | 1.7 | 0.00 | 0.00 | 0.00 | 81 | 1011.9 |
| 20260831144731 | 70 | 255 | 0.9 | 1.7 | 0.00 | 0.00 | 0.00 | 81 | 1011.9 |
| 20260831144011 | 70 | 259 | 0.0 | 2.6 | 0.00 | 0.00 | 0.00 | 82 | 1011.8 |
| 20260831143009 | 69 | 248 | 0.0 | 0.0 | 0.00 | 0.00 | 0.00 | 83 | 1011.8 |
| 20260831142731 | 69 | 259 | 0.0 | 0.0 | 0.00 | 0.00 | 0.00 | 83 | 1011.8 |
| 20260831142010 | 69 | 250 | 0.0 | 0.0 | 0.00 | 0.00 | 0.00 | 84 | 1011.7 |
| 20260831141509 | 69 | 250 | 0.0 | 0.0 | 0.00 | 0.00 | 0.00 | 85 | 1011.7 |
| 20260831141009 | 69 | 254 | 0.0 | 0.0 | 0.00 | 0.00 | 0.00 | 85 | 1011.6 |
| 20260831140510 | 69 | 252 | 0.0 | 0.0 | 0.00 | 0.00 | 0.00 | 85 | 1011.5 |
| 20260831140230 | 69 | 250 | 0.0 | 0.0 | 0.00 | 0.00 | 0.00 | 85 | 1011.5 |
| 20260831135508 | 69 | 248 | 0.0 | 0.0 | 0.00 | 0.00 | 0.00 | 85 | 1011.4 |
| 20260831135008 | 69 | 249 | 0.0 | 0.0 | 0.00 | 0.00 | 0.00 | 85 | 1011.2 |
| 20260831134509 | 69 | 255 | 0.0 | 2.6 | 0.00 | 0.00 | 0.00 | 85 | 1011.2 |
| 20260831134234 | 69 | 268 | 0.0 | 2.6 | 0.00 | 0.00 | 0.00 | 85 | 1011.1 |
| 20260831133008 | 69 | 256 | 0.0 | 1.7 | 0.00 | 0.00 | 0.00 | 85 | 1011.0 |
| 20260831132509 | 69 | 258 | 0.0 | 2.6 | 0.00 | 0.00 | 0.00 | 85 | 1011.0 |
| 20260831132008 | 69 | 264 | 0.0 | 2.6 | 0.00 | 0.00 | 0.00 | 85 | 1010.9 |
| 20260831131508 | 69 | 257 | 0.0 | 2.6 | 0.00 | 0.00 | 0.00 | 85 | 1011.0 |
| 20260831131007 | 69 | 285 | 1.7 | 4.3 | 0.00 | 0.00 | 0.00 | 85 | 1011.0 |
| 20260831130508 | 69 | 276 | 0.9 | 4.3 | 0.00 | 0.00 | 0.00 | 85 | 1011.0 |
| 20260831130008 | 69 | 294 | 0.0 | 2.6 | 0.00 | 0.00 | 0.00 | 85 | 1010.9 |
| 20260831125507 | 69 | 290 | 0.0 | 0.0 | 0.00 | 0.00 | 0.00 | 85 | 1010.9 |
| 20260831125007 | 69 | 254 | 0.0 | 0.0 | 0.00 | 0.00 | 0.00 | 86 | 1010.9 |
| 20260831124727 | 69 | 251 | 0.0 | 0.0 | 0.00 | 0.00 | 0.00 | 85 | 1010.9 |
| 20260831124008 | 69 | 245 | 0.0 | 0.0 | 0.00 | 0.00 | 0.00 | 85 | 1010.9 |
| 20260831123507 | 69 | 260 | 0.0 | 0.0 | 0.00 | 0.00 | 0.00 | 85 | 1010.8 |
| 20260831123007 | 69 | 255 | 0.0 | 2.6 | 0.00 | 0.00 | 0.00 | 85 | 1010.8 |
| 20260831122506 | 69 | 257 | 0.9 | 2.6 | 0.00 | 0.00 | 0.00 | 85 | 1010.8 |
| 20260831122007 | 69 | 252 | 0.9 | 4.3 | 0.00 | 0.00 | 0.00 | 85 | 1010.8 |
| 20260831121508 | 69 | 278 | 1.7 | 5.2 | 0.00 | 0.00 | 0.00 | 85 | 1010.8 |
| 20260831121006 | 69 | 291 | 2.6 | 5.2 | 0.00 | 0.00 | 0.00 | 85 | 1010.8 |
| 20260831120727 | 69 | 298 | 4.3 | 5.2 | 0.00 | 0.00 | 0.00 | 85 | 1010.8 |
| 20260831120230 | 69 | 332 | 2.6 | 6.1 | 0.00 | 0.00 | 0.00 | 85 | 1010.8 |
| 20260831115506 | 69 | 290 | 3.5 | 6.1 | 0.00 | 0.00 | 0.00 | 85 | 1010.9 |
| 20260831115006 | 69 | 339 | 2.6 | 4.3 | 0.00 | 0.00 | 0.00 | 86 | 1010.8 |
| 20260831114722 | 69 | 289 | 0.0 | 1.7 | 0.00 | 0.00 | 0.00 | 86 | 1010.8 |
| 20260831114006 | 69 | 263 | 0.0 | 1.7 | 0.00 | 0.00 | 0.00 | 86 | 1010.8 |
| 20260831113507 | 69 | 265 | 0.0 | 2.6 | 0.00 | 0.00 | 0.00 | 86 | 1010.7 |
| 20260831113006 | 69 | 223 | 0.9 | 4.3 | 0.00 | 0.00 | 0.00 | 85 | 1010.8 |
| 20260831112505 | 70 | 259 | 1.7 | 4.3 | 0.00 | 0.00 | 0.00 | 85 | 1010.8 |
| 20260831112006 | 70 | 256 | 0.0 | 4.3 | 0.00 | 0.00 | 0.00 | 86 | 1010.7 |
| 20260831111508 | 70 | 262 | 0.9 | 4.3 | 0.00 | 0.00 | 0.00 | 86 | 1010.8 |
| 20260831111005 | 70 | 254 | 0.9 | 2.6 | 0.00 | 0.00 | 0.00 | 86 | 1010.8 |
| 20260831110505 | 70 | 278 | 0.9 | 4.3 | 0.00 | 0.00 | 0.00 | 86 | 1010.8 |
| 20260831110228 | 70 | 259 | 0.0 | 4.3 | 0.00 | 0.00 | 0.00 | 86 | 1010.9 |
| 20260831105505 | 70 | 266 | 2.6 | 2.6 | 0.00 | 0.00 | 0.00 | 86 | 1010.8 |
| 20260831105005 | 70 | 262 | 0.0 | 1.7 | 0.00 | 0.00 | 0.00 | 85 | 1010.8 |
| 20260831104506 | 70 | 256 | 0.0 | 2.6 | 0.00 | 0.00 | 0.00 | 85 | 1010.8 |
| 20260831104005 | 70 | 239 | 0.9 | 2.6 | 0.00 | 0.00 | 0.00 | 85 | 1010.9 |
| 20260831103504 | 70 | 240 | 0.9 | 1.7 | 0.00 | 0.00 | 0.00 | 85 | 1011.0 |
| 20260831103227 | 70 | 253 | 0.9 | 1.7 | 0.00 | 0.00 | 0.00 | 86 | 1010.9 |
| 20260831102503 | 70 | 250 | 0.9 | 1.7 | 0.00 | 0.00 | 0.00 | 86 | 1011.0 |
| 20260831102005 | 70 | 252 | 0.9 | 4.3 | 0.00 | 0.00 | 0.00 | 86 | 1010.9 |
| 20260831101507 | 70 | 244 | 1.7 | 4.3 | 0.00 | 0.00 | 0.00 | 86 | 1010.9 |
| 20260831101004 | 70 | 251 | 0.0 | 2.6 | 0.00 | 0.00 | 0.00 | 86 | 1010.9 |
| 20260831100726 | 70 | 282 | 1.7 | 2.6 | 0.00 | 0.00 | 0.00 | 86 | 1010.9 |
| 20260831095722 | 70 | 266 | 0.0 | 1.7 | 0.00 | 0.00 | 0.00 | 86 | 1010.9 |
| 20260831095222 | 70 | 258 | 0.0 | 2.6 | 0.00 | 0.00 | 0.00 | 86 | 1010.9 |
| 20260831094723 | 70 | 273 | 0.9 | 2.6 | 0.00 | 0.00 | 0.00 | 86 | 1011.0 |
| 20260831094222 | 70 | 272 | 1.7 | 4.3 | 0.00 | 0.00 | 0.00 | 86 | 1010.9 |
| 20260831093221 | 70 | 256 | 1.7 | 2.6 | 0.00 | 0.00 | 0.00 | 87 | 1011.0 |
| 20260831092723 | 70 | 254 | 0.9 | 2.6 | 0.00 | 0.00 | 0.00 | 87 | 1010.9 |
| 20260831092222 | 70 | 257 | 0.0 | 2.6 | 0.00 | 0.00 | 0.00 | 87 | 1010.8 |
| 20260831091720 | 70 | 248 | 0.9 | 4.3 | 0.00 | 0.00 | 0.00 | 87 | 1010.9 |
| 20260831091222 | 70 | 257 | 0.9 | 4.3 | 0.00 | 0.00 | 0.00 | 87 | 1010.8 |
| 20260831090943 | 71 | 303 | 1.7 | 4.3 | 0.00 | 0.00 | 0.00 | 87 | 1010.9 |
| 20260831090443 | 71 | 264 | 0.9 | 4.3 | 0.00 | 0.00 | 0.00 | 87 | 1010.9 |
| 20260831085721 | 71 | 266 | 0.9 | 2.6 | 0.00 | 0.00 | 0.00 | 87 | 1010.9 |
| 20260831085439 | 71 | 262 | 0.9 | 1.7 | 0.00 | 0.00 | 0.00 | 87 | 1011.0 |
| 20260831084944 | 71 | 250 | 0.9 | 2.6 | 0.00 | 0.00 | 0.00 | 87 | 1011.0 |
| 20260831084221 | 71 | 265 | 0.0 | 2.6 | 0.00 | 0.00 | 0.00 | 87 | 1011.0 |
| 20260831083720 | 71 | 260 | 0.9 | 2.6 | 0.00 | 0.00 | 0.00 | 87 | 1011.0 |
| 20260831083220 | 71 | 276 | 0.9 | 2.6 | 0.00 | 0.00 | 0.00 | 88 | 1011.0 |
| 20260831082721 | 71 | 240 | 1.7 | 1.7 | 0.00 | 0.00 | 0.00 | 87 | 1011.1 |
| 20260831082221 | 71 | 261 | 0.0 | 2.6 | 0.00 | 0.00 | 0.00 | 87 | 1011.0 |
| 20260831081944 | 71 | 257 | 0.0 | 4.3 | 0.00 | 0.00 | 0.00 | 87 | 1011.1 |
| 20260831081219 | 70 | 226 | 2.6 | 4.3 | 0.00 | 0.00 | 0.00 | 88 | 1011.1 |
| 20260831080719 | 70 | 239 | 0.0 | 1.7 | 0.00 | 0.00 | 0.00 | 89 | 1011.1 |
| 20260831080221 | 70 | 246 | 0.9 | 2.6 | 0.00 | 0.00 | 0.00 | 89 | 1011.1 |
| 20260831075719 | 70 | 251 | 0.9 | 2.6 | 0.00 | 0.00 | 0.00 | 89 | 1011.1 |
| 20260831075219 | 70 | 254 | 0.0 | 0.0 | 0.00 | 0.00 | 0.00 | 89 | 1011.2 |
| 20260831074719 | 70 | 254 | 0.0 | 0.0 | 0.00 | 0.00 | 0.00 | 89 | 1011.1 |
| 20260831074220 | 70 | 264 | 0.0 | 0.0 | 0.00 | 0.00 | 0.00 | 89 | 1011.1 |
| 20260831073719 | 70 | 253 | 0.0 | 0.0 | 0.00 | 0.00 | 0.00 | 89 | 1011.1 |
| 20260831073218 | 70 | 252 | 0.0 | 0.0 | 0.00 | 0.00 | 0.00 | 89 | 1011.2 |
| 20260831072718 | 70 | 253 | 0.0 | 0.0 | 0.00 | 0.00 | 0.00 | 89 | 1011.2 |
| 20260831072219 | 70 | 255 | 0.0 | 0.0 | 0.00 | 0.00 | 0.00 | 90 | 1011.1 |
| 20260831071720 | 70 | 264 | 0.0 | 0.0 | 0.00 | 0.00 | 0.00 | 90 | 1011.2 |
| 20260831071218 | 70 | 264 | 0.0 | 0.0 | 0.00 | 0.00 | 0.00 | 90 | 1011.2 |
| 20260831070718 | 70 | 257 | 0.0 | 0.0 | 0.00 | 0.00 | 0.00 | 90 | 1011.2 |
| 20260831070219 | 70 | 261 | 0.0 | 0.0 | 0.00 | 0.00 | 0.00 | 90 | 1011.2 |
| 20260831065945 | 70 | 258 | 0.0 | 0.0 | 0.00 | 0.00 | 0.00 | 90 | 1011.2 |
| 20260831065217 | 70 | 248 | 0.0 | 0.0 | 0.00 | 0.00 | 0.00 | 90 | 1011.2 |
| 20260831064930 | 70 | 246 | 0.0 | 0.0 | 0.00 | 0.00 | 0.00 | 90 | 1011.2 |
| 20260831064218 | 70 | 254 | 0.0 | 0.0 | 0.00 | 0.00 | 0.00 | 90 | 1011.2 |
| 20260831063718 | 70 | 254 | 0.0 | 0.0 | 0.00 | 0.00 | 0.00 | 90 | 1011.1 |
| 20260831063217 | 71 | 249 | 0.0 | 0.0 | 0.00 | 0.00 | 0.00 | 89 | 1011.2 |
| 20260831062717 | 71 | 248 | 0.0 | 0.0 | 0.00 | 0.00 | 0.00 | 89 | 1011.1 |
| 20260831062218 | 71 | 248 | 0.0 | 0.0 | 0.00 | 0.00 | 0.00 | 89 | 1011.1 |
| 20260831061938 | 71 | 251 | 0.0 | 0.0 | 0.00 | 0.00 | 0.00 | 89 | 1011.0 |
| 20260831061441 | 71 | 249 | 0.0 | 0.0 | 0.00 | 0.00 | 0.00 | 89 | 1011.1 |
| 20260831060940 | 71 | 256 | 0.0 | 0.0 | 0.00 | 0.00 | 0.00 | 89 | 1011.1 |
| 20260831060217 | 71 | 254 | 0.0 | 0.0 | 0.00 | 0.00 | 0.00 | 89 | 1011.1 |
| 20260831055216 | 71 | 241 | 0.0 | 2.6 | 0.00 | 0.00 | 0.00 | 89 | 1011.1 |
| 20260831054935 | 71 | 279 | 1.7 | 4.3 | 0.00 | 0.00 | 0.00 | 89 | 1011.1 |
| 20260831054218 | 71 | 262 | 0.9 | 4.3 | 0.00 | 0.00 | 0.00 | 89 | 1011.0 |
| 20260831053717 | 71 | 309 | 1.7 | 4.3 | 0.00 | 0.00 | 0.00 | 89 | 1011.1 |
| 20260831053216 | 71 | 279 | 0.9 | 4.3 | 0.00 | 0.00 | 0.00 | 89 | 1011.1 |
| 20260831052715 | 71 | 263 | 0.9 | 4.3 | 0.00 | 0.00 | 0.00 | 89 | 1011.0 |
| 20260831052216 | 71 | 282 | 0.0 | 4.3 | 0.00 | 0.00 | 0.00 | 89 | 1010.9 |
| 20260831051717 | 71 | 272 | 1.7 | 4.3 | 0.00 | 0.00 | 0.00 | 89 | 1010.9 |
| 20260831051216 | 71 | 274 | 1.7 | 5.2 | 0.00 | 0.00 | 0.00 | 89 | 1010.8 |
| 20260831050716 | 71 | 270 | 2.6 | 5.2 | 0.00 | 0.00 | 0.00 | 89 | 1010.8 |
| 20260831050214 | 71 | 247 | 0.0 | 4.3 | 0.00 | 0.00 | 0.00 | 89 | 1010.9 |
| 20260831045716 | 71 | 265 | 0.9 | 4.3 | 0.00 | 0.00 | 0.00 | 88 | 1011.0 |
| 20260831045215 | 71 | 272 | 1.7 | 4.3 | 0.00 | 0.00 | 0.00 | 88 | 1011.0 |
| 20260831044715 | 71 | 276 | 0.9 | 2.6 | 0.00 | 0.00 | 0.00 | 88 | 1010.9 |
| 20260831044215 | 71 | 294 | 1.7 | 1.7 | 0.00 | 0.00 | 0.00 | 89 | 1010.9 |
| 20260831043715 | 71 | 258 | 0.0 | 2.6 | 0.00 | 0.00 | 0.00 | 89 | 1010.9 |
| 20260831043216 | 71 | 255 | 0.0 | 2.6 | 0.00 | 0.00 | 0.00 | 89 | 1010.9 |
| 20260831042714 | 71 | 260 | 0.0 | 2.6 | 0.00 | 0.00 | 0.00 | 89 | 1010.9 |
| 20260831042215 | 71 | 280 | 0.9 | 2.6 | 0.00 | 0.00 | 0.00 | 89 | 1010.8 |
| 20260831041727 | 71 | 263 | 1.7 | 2.6 | 0.00 | 0.00 | 0.00 | 89 | 1010.8 |
| 20260831041648 | 71 | 267 | 1.7 | 4.3 | 0.00 | 0.00 | 0.00 | 89 | 1010.7 |
| 20260831040214 | 71 | 261 | 1.7 | 4.3 | 0.00 | 0.00 | 0.00 | 89 | 1010.6 |
| 20260831035715 | 71 | 271 | 2.6 | 2.6 | 0.00 | 0.00 | 0.00 | 89 | 1010.5 |
| 20260831035215 | 71 | 275 | 1.7 | 2.6 | 0.00 | 0.00 | 0.00 | 89 | 1010.5 |
| 20260831034715 | 71 | 265 | 0.9 | 4.3 | 0.00 | 0.00 | 0.00 | 89 | 1010.5 |
| 20260831034432 | 71 | 260 | 0.0 | 4.3 | 0.00 | 0.00 | 0.00 | 89 | 1010.4 |
| 20260831033715 | 71 | 271 | 1.7 | 4.3 | 0.00 | 0.00 | 0.00 | 89 | 1010.4 |
| 20260831033214 | 71 | 278 | 0.9 | 4.3 | 0.00 | 0.00 | 0.00 | 89 | 1010.2 |
| 20260831032713 | 71 | 286 | 2.6 | 2.6 | 0.00 | 0.00 | 0.00 | 89 | 1010.2 |
| 20260831032213 | 72 | 247 | 0.9 | 4.3 | 0.00 | 0.00 | 0.00 | 88 | 1010.1 |
| 20260831031714 | 72 | 266 | 2.6 | 4.3 | 0.00 | 0.00 | 0.00 | 88 | 1010.0 |
| 20260831031214 | 72 | 268 | 0.9 | 4.3 | 0.00 | 0.00 | 0.00 | 88 | 1010.0 |
| 20260831030713 | 72 | 236 | 2.6 | 4.3 | 0.00 | 0.00 | 0.00 | 87 | 1009.9 |
| 20260831030430 | 72 | 262 | 0.0 | 5.2 | 0.00 | 0.00 | 0.00 | 87 | 1009.9 |
| 20260831025937 | 72 | 258 | 0.0 | 5.2 | 0.00 | 0.00 | 0.00 | 87 | 1009.9 |
| 20260831025438 | 72 | 276 | 0.9 | 4.3 | 0.00 | 0.00 | 0.00 | 86 | 1009.8 |
| 20260831024711 | 72 | 283 | 1.7 | 2.6 | 0.00 | 0.00 | 0.00 | 86 | 1009.9 |
| 20260831024212 | 73 | 263 | 1.7 | 4.3 | 0.00 | 0.00 | 0.00 | 85 | 1010.0 |
| 20260831023712 | 73 | 264 | 0.9 | 4.3 | 0.00 | 0.00 | 0.00 | 85 | 1010.0 |
| 20260831023211 | 73 | 264 | 0.0 | 4.3 | 0.00 | 0.00 | 0.00 | 84 | 1009.9 |
| 20260831022712 | 73 | 260 | 0.9 | 2.6 | 0.00 | 0.00 | 0.00 | 84 | 1009.8 |
| 20260831022211 | 74 | 262 | 0.9 | 2.6 | 0.00 | 0.00 | 0.00 | 83 | 1009.8 |
| 20260831021938 | 74 | 269 | 0.0 | 2.6 | 0.00 | 0.00 | 0.00 | 82 | 1009.8 |
| 20260831021212 | 74 | 285 | 0.0 | 4.3 | 0.00 | 0.00 | 0.00 | 81 | 1009.7 |
| 20260831020711 | 74 | 263 | 0.0 | 4.3 | 0.00 | 0.00 | 0.00 | 81 | 1009.7 |
| 20260831020211 | 75 | 304 | 2.6 | 4.3 | 0.00 | 0.00 | 0.00 | 80 | 1009.6 |
| 20260831015932 | 75 | 315 | 1.7 | 5.2 | 0.00 | 0.00 | 0.00 | 80 | 1009.5 |
| 20260831015439 | 75 | 280 | 0.0 | 5.2 | 0.00 | 0.00 | 0.00 | 80 | 1009.6 |
| 20260831014935 | 76 | 263 | 0.0 | 6.1 | 0.00 | 0.00 | 0.00 | 80 | 1009.6 |
| 20260831014208 | 76 | 276 | 1.7 | 6.1 | 0.00 | 0.00 | 0.00 | 80 | 1009.6 |
| 20260831013709 | 76 | 344 | 2.6 | 4.3 | 0.00 | 0.00 | 0.00 | 78 | 1009.6 |
| 20260831013211 | 76 | 260 | 1.7 | 5.2 | 0.00 | 0.00 | 0.00 | 77 | 1009.7 |
| 20260831012209 | 76 | 310 | 1.7 | 6.1 | 0.00 | 0.00 | 0.00 | 77 | 1009.6 |
| 20260831011930 | 77 | 311 | 3.5 | 6.1 | 0.00 | 0.00 | 0.00 | 77 | 1009.6 |
| 20260831011210 | 77 | 347 | 4.3 | 6.1 | 0.00 | 0.00 | 0.00 | 77 | 1009.6 |
| 20260831010711 | 77 | 257 | 2.6 | 6.1 | 0.00 | 0.00 | 0.00 | 76 | 1009.6 |
| 20260831010430 | 77 | 291 | 3.5 | 7.8 | 0.00 | 0.00 | 0.00 | 76 | 1009.6 |
| 20260831005709 | 77 | 265 | 2.6 | 7.8 | 0.00 | 0.00 | 0.00 | 76 | 1009.6 |
| 20260831005210 | 77 | 330 | 4.3 | 7.0 | 0.00 | 0.00 | 0.00 | 77 | 1009.6 |
| 20260831004711 | 77 | 294 | 1.7 | 7.0 | 0.00 | 0.00 | 0.00 | 77 | 1009.7 |
| 20260831004426 | 77 | 314 | 3.5 | 7.0 | 0.00 | 0.00 | 0.00 | 77 | 1009.5 |
| 20260831003708 | 78 | 308 | 2.6 | 7.0 | 0.00 | 0.00 | 0.00 | 77 | 1009.6 |
| 20260831003210 | 78 | 324 | 4.3 | 6.1 | 0.00 | 0.00 | 0.00 | 77 | 1009.7 |
| 20260831002710 | 78 | 249 | 2.6 | 7.0 | 0.00 | 0.00 | 0.00 | 75 | 1009.7 |
| 20260831002209 | 78 | 267 | 4.3 | 7.0 | 0.00 | 0.00 | 0.00 | 75 | 1009.8 |
| 20260831001709 | 78 | 264 | 3.5 | 7.0 | 0.00 | 0.00 | 0.00 | 74 | 1009.8 |
| 20260831001208 | 78 | 284 | 5.2 | 7.0 | 0.00 | 0.00 | 0.00 | 74 | 1009.6 |
| 20260831000710 | 78 | 281 | 1.7 | 7.0 | 0.00 | 0.00 | 0.00 | 74 | 1009.5 |
| 20260831000221 | 78 | 255 | 1.7 | 7.8 | 0.00 | 0.00 | 0.00 | 74 | 1009.5 |
| 20260830235944 | 78 | 350 | 6.1 | 8.7 | 0.00 | 0.00 | 0.00 | 74 | 1009.5 |
| 20260830235221 | 78 | 0 | 5.2 | 8.7 | 0.00 | 0.00 | 0.00 | 75 | 1009.5 |
| 20260830234726 | 78 | 268 | 4.3 | 10.4 | 0.00 | 0.00 | 0.00 | 75 | 1009.5 |
| 20260830234226 | 78 | 327 | 4.3 | 10.4 | 0.00 | 0.00 | 0.00 | 76 | 1009.6 |
| 20260830233712 | 78 | 312 | 2.6 | 10.4 | 0.00 | 0.00 | 0.00 | 74 | 1009.7 |
| 20260830233218 | 78 | 328 | 2.6 | 7.8 | 0.00 | 0.00 | 0.00 | 74 | 1009.9 |
| 20260830232726 | 78 | 300 | 6.1 | 8.7 | 0.00 | 0.00 | 0.00 | 75 | 1009.8 |
| 20260830232218 | 79 | 257 | 6.1 | 8.7 | 0.00 | 0.00 | 0.00 | 75 | 1009.6 |
| 20260830231933 | 79 | 249 | 1.7 | 8.7 | 0.00 | 0.00 | 0.00 | 73 | 1009.8 |
| 20260830231230 | 78 | 316 | 1.7 | 8.7 | 0.00 | 0.00 | 0.00 | 74 | 1009.8 |
| 20260830230951 | 79 | 319 | 1.7 | 11.3 | 0.00 | 0.00 | 0.00 | 74 | 1009.8 |
| 20260830230220 | 79 | 264 | 5.2 | 11.3 | 0.00 | 0.00 | 0.00 | 73 | 1009.8 |
| 20260830225732 | 79 | 300 | 7.0 | 8.7 | 0.00 | 0.00 | 0.00 | 73 | 1009.8 |
| 20260830225214 | 79 | 328 | 3.5 | 10.4 | 0.00 | 0.00 | 0.00 | 74 | 1009.9 |
| 20260830224726 | 80 | 276 | 2.6 | 10.4 | 0.00 | 0.00 | 0.00 | 73 | 1009.9 |
| 20260830224228 | 80 | 313 | 6.1 | 10.4 | 0.00 | 0.00 | 0.00 | 73 | 1009.9 |
| 20260830223729 | 81 | 352 | 7.0 | 8.7 | 0.00 | 0.00 | 0.00 | 72 | 1009.8 |
| 20260830223217 | 80 | 233 | 1.7 | 11.3 | 0.00 | 0.00 | 0.00 | 71 | 1009.9 |
| 20260830222723 | 81 | 356 | 7.0 | 11.3 | 0.00 | 0.00 | 0.00 | 73 | 1009.9 |
| 20260830222234 | 82 | 282 | 5.2 | 7.0 | 0.00 | 0.00 | 0.00 | 69 | 1009.9 |
| 20260830221730 | 81 | 354 | 4.3 | 7.8 | 0.00 | 0.00 | 0.00 | 67 | 1010.1 |
| 20260830221223 | 81 | 347 | 4.3 | 7.8 | 0.00 | 0.00 | 0.00 | 68 | 1010.0 |
| 20260830220742 | 82 | 270 | 4.3 | 7.8 | 0.00 | 0.00 | 0.00 | 66 | 1010.2 |
| 20260830220438 | 82 | 274 | 6.1 | 7.8 | 0.00 | 0.00 | 0.00 | 70 | 1010.3 |
| 20260830215723 | 82 | 231 | 1.7 | 7.0 | 0.00 | 0.00 | 0.00 | 64 | 1010.3 |
| 20260830215220 | 82 | 280 | 2.6 | 7.8 | 0.00 | 0.00 | 0.00 | 65 | 1010.2 |
| 20260830214717 | 82 | 320 | 5.2 | 7.8 | 0.00 | 0.00 | 0.00 | 68 | 1010.3 |
| 20260830214209 | 82 | 184 | 3.5 | 6.1 | 0.00 | 0.00 | 0.00 | 66 | 1010.4 |
| 20260830213722 | 82 | 274 | 2.6 | 5.2 | 0.00 | 0.00 | 0.00 | 64 | 1010.4 |
| 20260830213214 | 81 | 263 | 3.5 | 8.7 | 0.00 | 0.00 | 0.00 | 65 | 1010.4 |
| 20260830212737 | 81 | 258 | 0.9 | 8.7 | 0.00 | 0.00 | 0.00 | 63 | 1010.3 |
| 20260830212446 | 81 | 236 | 5.2 | 7.8 | 0.00 | 0.00 | 0.00 | 60 | 1010.4 |
| 20260830211715 | 81 | 264 | 2.6 | 7.8 | 0.00 | 0.00 | 0.00 | 64 | 1010.4 |
| 20260830211227 | 81 | 190 | 3.5 | 10.4 | 0.00 | 0.00 | 0.00 | 66 | 1010.4 |